Home > Weather > Cairns > Past weeks

Flag for Australia Past Weather in Cairns, Queensland, Australia — Yesterday and Last 2 Weeks

Now
72 °F

Passing clouds.


Feels Like: 72 °F
Forecast: 71 / 79 °F
Wind: 9 mph from South

Location: Cairns Airport

Current Time: Jul 31, 2016 at 4:56:26 AM

Latest Report: Jul 31, 2016 at 4:00 AM


Visibility: N/A

Pressure: 29.95 "Hg

Humidity: 78%

Dew Point: 64 °F

Location of CairnsLocation

Past Weather in Cairns — Graph

°F

Cairns Temperature Yesterday

Maximum temperature yesterday: 81 °F (at 1:00 PM)
Minimum temperature yesterday: 70 °F (at 12:00 AM)
Average temperature yesterday: 73 °F

High & Low Weather Summary for the Past Weeks

 TemperatureHumidityPressure
High82 °F (Jul 18, 3:30 PM)100% (Jul 18, 5:00 AM)30.09 "Hg (Jul 18, 5:00 AM)
Low63 °F (Jul 16, 6:30 AM)51% (Jul 17, 12:00 PM)29.86 "Hg (Jul 16, 2:00 PM)
Average74 °F78%29.97 "Hg
* Reported Jul 16 3:00 AM — Jul 31 3:30 AM, Cairns, Weather by CustomWeather, © 2016

Note: Actual official high and low records may vary slightly from our data, if they occured in-between our weather recording intervals... More about our weather records

Advertising

Cairns Weather History for the Previous 24 Hours

Scroll right to see more
 ConditionsComfort  
Time TempWeatherWind HumidityBarometerVisibility
3:30 AM
Sun, Jul 31
72 °FPassing clouds.3 mph78%29.95 "HgN/A
3:00 AM70 °FScattered showers. Passing clouds.8 mph83%29.95 "HgN/A
2:00 AM70 °FScattered showers. Passing clouds.10 mph83%29.98 "HgN/A
1:30 AM70 °FMostly cloudy.14 mph83%29.98 "HgN/A
1:00 AM70 °FSprinkles. Passing clouds.14 mph88%29.98 "HgN/A
12:30 AM72 °FPassing clouds.14 mph73%29.98 "HgN/A
12:00 AM72 °FPassing clouds.12 mph73%29.98 "HgN/A
11:30 PM
Sat, Jul 30
72 °FPassing clouds.10 mph73%30.01 "HgN/A
11:00 PM72 °FPassing clouds.12 mph73%30.01 "HgN/A
10:30 PM70 °FPassing clouds.12 mph78%30.01 "HgN/A
10:00 PM70 °FPassing clouds.12 mph78%30.01 "HgN/A
9:00 PM70 °FPassing clouds.10 mph83%30.01 "HgN/A
8:00 PM70 °FPassing clouds.9 mph83%30.01 "HgN/A
7:30 PM72 °FPassing clouds.10 mph78%29.98 "HgN/A
7:00 PM72 °FPassing clouds.10 mph78%29.98 "HgN/A
6:00 PM73 °FPassing clouds.12 mph74%29.95 "HgN/A
5:00 PM75 °FPassing clouds.15 mph69%29.95 "HgN/A
4:00 PM79 °FPassing clouds.21 mph61%29.92 "HgN/A
3:00 PM81 °FScattered clouds.18 mph62%29.92 "HgN/A
2:30 PM81 °FScattered clouds.21 mph58%29.92 "HgN/A
2:00 PM81 °FScattered clouds.17 mph58%29.95 "HgN/A
1:30 PM81 °FScattered clouds.18 mph62%29.95 "HgN/A
1:00 PM81 °FScattered clouds.18 mph62%29.98 "HgN/A
12:00 PM79 °FScattered clouds.21 mph61%29.98 "HgN/A
11:00 AM77 °FScattered clouds.15 mph69%30.01 "HgN/A
10:00 AM77 °FScattered clouds.18 mph69%30.01 "HgN/A
9:30 AM75 °FPassing clouds.15 mph69%30.01 "HgN/A
9:00 AM75 °FScattered clouds.18 mph74%30.01 "HgN/A
8:30 AM73 °FPassing clouds.14 mph74%30.01 "HgN/A
8:00 AM72 °FPassing clouds.14 mph78%30.01 "HgN/A
7:00 AM70 °FPassing clouds.14 mph78%29.98 "HgN/A
6:00 AM70 °FPassing clouds.15 mph78%29.95 "HgN/A
5:30 AM70 °FPassing clouds.15 mph78%29.95 "HgN/A
5:00 AM70 °FPassing clouds.13 mph78%29.95 "HgN/A
4:30 AM70 °FPassing clouds.15 mph78%29.95 "HgN/A
4:00 AM70 °FPassing clouds.15 mph78%29.95 "HgN/A
Weather by CustomWeather, © 2016

See weather overviewHow to use our weather pages